Location: Circle Lane School (historical)
(41.2781°N, 96.3214°W)
Time: 12:27:19
(UTC+00:00)

Daily predictions for brighter satellites

Satellite Brightness Start Highest point End
(mag) Time Altitude Azimuth Time Altitude Azimuth Time Altitude Azimuth
PSLV R/B 4.2 12:02:42 32° SW 12:03:22 36° SSW 12:06:30 10° SE
Cosmos 1025 Rocket 3.2 12:02:16 10° N 12:06:39 73° E 12:11:00 10° SSE
Meteor 2-4 Rocket 3.7 12:03:32 10° N 12:09:04 85° E 12:14:46 10° S
IDEFIX/ARIANE 42P 4.4 12:06:11 10° NNE 12:10:53 33° E 12:15:33 10° SSE
Cosmos 44 Rocket 3.6 12:10:06 10° SW 12:15:08 51° NW 12:20:08 10° NNE
Cosmos 2369 Rocket 2.2 12:10:40 12° NNW 12:16:03 77° WSW 12:21:44 10° SSE
CENTAUR R/B 4.0 12:14:52 17° NW 12:16:40 19° NNW 12:21:36 10° NNE
Cosmos 1603 4.2 12:12:08 10° WSW 12:17:18 35° WNW 12:22:29 10° N
Lacrosse 5 2.0 12:14:07 16° WSW 12:18:05 52° NW 12:23:06 10° NE
CZ-4 R/B 2.5 12:14:37 10° NNE 12:18:27 46° E 12:22:11 10° S
Meteor 1-5 Rocket 4.4 12:13:40 10° S 12:18:59 68° E 12:24:16 10° NNE
Cosmos 1536 2.8 12:16:32 10° SSW 12:20:27 58° W 12:24:26 10° N
Okean 1 Rocket 3.5 12:17:23 10° SW 12:21:30 38° WNW 12:25:35 10° N
SL-24 DEB 4.3 12:19:11 10° S 12:23:55 64° W 12:28:42 10° N
Cosmos 1544 Rocket 4.3 12:20:22 10° S 12:24:38 57° E 12:28:56 10° NNE
Cosmos 1452 Rocket 3.5 12:20:01 10° NNW 12:25:18 74° WSW 12:30:33 10° S
COSMO-SKYMED 1 3.4 12:23:48 10° SSW 12:27:34 29° W 12:30:31 14° NW
SL-8 Rocket 4.0 12:27:21 10° S 12:33:38 89° E 12:39:54 10° N
IRS-1A Rocket 4.3 12:32:21 10° NNE 12:38:05 84° WNW 12:43:54 10° SSW
Lacrosse 4 Rocket 2.6 12:34:51 10° NNW 12:38:46 39° ENE 12:42:35 10° SE
Okean 1-7 Rocket 4.4 12:36:55 10° NNW 12:40:42 29° W 12:44:29 10° SSW
Cosmos 1943 3.4 12:35:47 10° SW 12:41:11 47° WNW 12:46:39 10° NNE
Lacrosse 5 rocket 3.8 12:44:37 10° N 12:45:23 10° N 12:46:09 10° NNE
Cosmos 2366 rocket 4.2 12:39:19 10° S 12:45:36 81° E 12:51:59 10° N
Cosmos 839 Rocket 4.3 12:39:12 10° NNW 12:45:50 74° ENE 12:51:57 10° SE
Tiangong 2 1.0 12:44:45 15° WNW 12:47:18 83° SSW 12:50:27 10° ESE
Cosmos 1959 Rocket 4.4 12:41:44 10° S 12:47:50 85° W 12:53:59 10° N
Cosmos 1892 Rocket 3.6 12:44:13 10° NNW 12:48:39 69° W 12:53:06 10° S
GRACE-2 4.3 12:46:57 10° NNW 12:49:35 39° W 12:52:12 10° SSW
GRACE-1 4.4 12:47:24 10° NNW 12:50:01 37° W 12:52:37 10° SSW
Cosmos 1633 4.2 12:48:34 10° WSW 12:50:46 15° WNW 12:52:58 10° NW
Cosmos 2218 Rocket 4.1 12:46:09 10° S 12:52:33 79° W 12:58:59 10° N
Cosmos 1943 Rocket 2.1 12:52:29 10° NNW 12:57:59 75° WSW 13:03:28 10° SSE
PAYLOAD A 4.3 12:55:26 10° N 13:00:40 56° WNW 13:05:59 10° SSW
Cosmos 1626 Rocket 4.3 12:58:00 10° N 13:02:23 57° E 13:06:42 10° SSE
Helios 1B rocket 2.5 12:58:56 10° S 13:03:03 69° WSW 13:07:12 10° NNW
Cosmos 1269 Rocket 4.0 12:58:27 10° SSW 13:03:41 65° WNW 13:08:59 10° NNE
Cosmos 1975 3.0 13:00:46 10° S 13:04:51 83° E 13:08:59 10° N
Cosmos 158 Rocket 4.2 13:00:50 10° SSW 13:06:06 84° ESE 13:11:31 10° NNE
USA 129 4.1 13:07:09 10° WSW 13:07:43 11° W 13:08:16 10° W
CSL-04 Rocket 4.2 23:19:17 10° S 23:24:43 69° WSW 23:30:15 10° NNW
SL-8 Rocket 4.0 23:23:14 10° N 23:29:24 74° E 23:35:32 10° SSE
IDEFIX/ARIANE 42P 2.8 23:24:37 10° SE 23:29:35 48° ENE 23:34:34 10° N
AQUARIUS 4.4 23:28:35 10° SSE 23:32:54 49° ENE 23:37:14 10° N
Cosmos 1844 Rocket 3.2 23:33:07 10° SW 23:38:39 61° WNW 23:44:15 10° NNE
Thor Agena Rocket 3.7 23:34:37 10° NNE 23:39:47 60° ESE 23:44:59 10° S
Cosmos 1812 2.8 23:37:30 10° S 23:41:17 59° E 23:45:06 10° NNE
Cosmos 2366 rocket 4.0 23:35:30 10° N 23:41:51 68° E 23:48:05 10° SSE
Cosmos 1959 Rocket 4.5 23:37:06 10° N 23:43:18 79° E 23:49:34 10° S
SL-27 R/B 3.3 23:40:43 10° NNW 23:44:19 57° WSW 23:47:52 10° S
Cosmos 2251 Rocket 3.6 23:41:29 10° NNW 23:46:53 87° WSW 23:52:10 10° SSE
Cosmos 2218 Rocket 4.0 23:43:06 10° N 23:49:25 87° E 23:55:37 10° S
CORIOLIS 4.1 23:45:36 10° SSE 23:50:57 69° ENE 23:56:19 10° N
Abrixas 3.4 23:50:35 10° NW 23:53:16 30° NNE 23:54:52 18° ENE
Okean 1 3.4 23:50:02 10° S 23:54:00 60° E 23:58:01 10° NNE
